Weather History for Kansas City, MO

Change the Weather History Date:

Monday, March 11, 2013

  Actual Average Record
Temperature  
Mean Temperature 32 °F -  
Max Temperature 37 °F 49 °F 80 °F (2014)
Min Temperature 27 °F 30 °F 7 °F (1998)
Degree Days  
Heating Degree Days 33    
Moisture  
Dew Point 20 °F    
Average Humidity 65    
Maximum Humidity 78    
Minimum Humidity 45    
Precipitation  
Precipitation 0.00 in - - ()
Sea Level Pressure  
Sea Level Pressure 29.94 in    
Wind  
Wind Speed 11 mph (WNW)    
Max Wind Speed 15 mph    
Max Gust Speed 23 mph    
Visibility 10 miles    
Events      
Averages and records for this station are not official NWS values.
T = Trace of Precipitation, MM = Missing Value Source: NWS Daily Summary

Daily Weather History Graph

Daily Weather History Graph

Search for Another Location

Airport:

Trip Planner

Search our weather history database for the weather conditions in past years. The results will help you decide how hot, cold, wet, or windy it might be!

Date:

Astronomy

Mar. 11, 2013 Rise Set
Actual Time 7:35 AM CDT 7:21 PM CDT
Civil Twilight 7:08 AM CDT 7:48 PM CDT
Nautical Twilight 6:37 AM CDT 8:19 PM CDT
Astronomical Twilight 6:06 AM CDT 8:50 PM CDT
Moon 7:09 AM CDT (3/11) 7:34 PM CDT (3/11)
Length of Visible Light 12h 39m
Length of Day
11h 46m
Waning Crescent, 0% of the Moon is Illuminated
Mar 11
Waning Crescent
Mar 11
New
Mar 19
First Quarter
Mar 27
Full
Apr 2
Last Quarter

Hourly Weather History & Observations

Time (CDT) Temp. Windchill Dew Point Humidity Pressure Visibility Wind Dir Wind Speed Gust Speed Precip Events Conditions
12:54 AM 28.9 °F 18.6 °F 21.9 °F 75% 29.91 in 10.0 mi WNW 12.7 mph 23.0 mph N/A   Overcast
1:54 AM 28.9 °F 19.8 °F 21.9 °F 75% 29.89 in 10.0 mi NW 10.4 mph 18.4 mph N/A   Overcast
2:54 AM 28.9 °F 18.6 °F 21.9 °F 75% 29.89 in 10.0 mi WNW 12.7 mph - N/A   Overcast
3:54 AM 28.0 °F 18.6 °F 21.9 °F 78% 29.88 in 10.0 mi WNW 10.4 mph - N/A   Overcast
4:54 AM 28.0 °F 17.5 °F 21.0 °F 75% 29.88 in 10.0 mi WNW 12.7 mph 19.6 mph N/A   Overcast
5:54 AM 28.0 °F 19.3 °F 21.0 °F 75% 29.90 in 10.0 mi WNW 9.2 mph - N/A   Overcast
6:54 AM 28.0 °F 18.6 °F 19.9 °F 72% 29.92 in 10.0 mi WNW 10.4 mph - N/A   Overcast
7:54 AM 28.0 °F 17.0 °F 19.9 °F 72% 29.93 in 10.0 mi West 13.8 mph - N/A   Overcast
8:54 AM 27.0 °F 18.0 °F 19.9 °F 75% 29.94 in 10.0 mi WNW 9.2 mph - 0.00 in   Overcast
9:54 AM 27.0 °F 16.7 °F 19.0 °F 72% 29.95 in 10.0 mi WNW 11.5 mph 19.6 mph N/A   Overcast
10:54 AM 28.0 °F 17.0 °F 19.9 °F 72% 29.96 in 10.0 mi West 13.8 mph - N/A   Overcast
11:46 AM 28.4 °F 19.1 °F 19.4 °F 69% 29.94 in 10.0 mi WNW 10.4 mph 21.9 mph N/A   Overcast
11:54 AM 30.0 °F 19.5 °F 21.0 °F 69% 29.97 in 10.0 mi West 13.8 mph 19.6 mph N/A   Overcast
12:03 PM 28.4 °F 18.0 °F 21.2 °F 74% 29.95 in 10.0 mi West 12.7 mph - N/A   Overcast
12:54 PM 32.0 °F 23.0 °F 21.9 °F 66% 29.96 in 10.0 mi WNW 11.5 mph - N/A   Overcast
1:54 PM 30.9 °F 20.2 °F 19.9 °F 64% 29.96 in 10.0 mi WNW 15.0 mph 19.6 mph N/A   Overcast
2:54 PM 33.1 °F 24.9 °F 21.0 °F 61% 29.95 in 10.0 mi WNW 10.4 mph - N/A   Mostly Cloudy
3:42 PM 33.8 °F 26.4 °F 19.4 °F 56% 29.92 in 10.0 mi West 9.2 mph - N/A   Scattered Clouds
3:54 PM 35.1 °F 27.4 °F 19.0 °F 52% 29.94 in 10.0 mi West 10.4 mph - N/A   Clear
4:54 PM 37.0 °F 29.3 °F 19.0 °F 48% 29.94 in 10.0 mi West 11.5 mph - N/A   Clear
5:54 PM 37.4 °F 30.8 °F 17.6 °F 45% 29.93 in 10.0 mi West 9.2 mph - N/A   Clear
6:54 PM 37.0 °F 33.3 °F 19.0 °F 48% 29.96 in 10.0 mi WNW 4.6 mph - N/A   Clear
7:54 PM 35.1 °F 31.0 °F 19.0 °F 52% 29.99 in 10.0 mi WNW 4.6 mph - N/A   Clear
8:54 PM 34.0 °F - 19.0 °F 54% 29.99 in 10.0 mi Calm Calm - N/A   Clear
9:54 PM 34.0 °F - 19.0 °F 54% 30.00 in 10.0 mi Calm Calm - N/A   Clear
10:54 PM 33.1 °F 30.0 °F 21.0 °F 61% 30.02 in 10.0 mi West 3.5 mph - N/A   Clear
11:54 PM 33.1 °F 30.0 °F 21.9 °F 64% 30.04 in 10.0 mi SW 3.5 mph - N/A   Clear